Flag for Brazil Weather past 2 weeks in Curitiba, Paraná, Brazil

Now
75 °F

Scattered clouds.


Feels Like: 78 °F
Forecast: 61 / 75 °F
Wind: 14 mph from North

Location: Curitiba Aeroporto

Current Time: May 23, 2015 at 2:11:25 PM

Latest Report: May 23, 2015 at 1:00 PM


Visibility: N/A

Pressure: 30.12 "Hg

Humidity: 57%

Dew point: 59 °F

Location of CuritibaLocation

Historic Weather in Curitiba — Graph

°F

Curitiba temperature yesterday

Maximum temperature yesterday: 73 °F (at 2:00 PM)
Minimum temperature yesterday: 59 °F (at 1:00 AM)
Average temperature yesterday: 64 °F

Past Weeks' High & Low Weather Summary

 TemperatureHumidityPressure
High75 °F (May 23, 12:00 PM)100% (May 9, 4:00 AM)30.36 "Hg (May 9, 4:00 AM)
Low48 °F (May 9, 3:00 AM)38% (May 9, 4:00 PM)29.95 "Hg (May 11, 5:00 AM)
Average60 °F87%30.23 "Hg
* Reported May 8 1:00 PM — May 23 1:00 PM, Curitiba, Weather by CustomWeather, © 2015

Note: Actual official high and low records may vary slightly from our data, if they occured in-between our weather recording intervals... More about our weather records

Advertising

Curitiba weather history for previous 24 hours

 ConditionsComfort  
Time TempWeatherWind HumidityBarometerVisibility
1:00 PM
Sat, May 23
75 °FScattered clouds.14 mph57%30.12 "HgN/A
12:00 PM75 °FScattered clouds.15 mph54%30.15 "HgN/A
11:00 AM73 °FScattered clouds.12 mph61%30.18 "HgN/A
10:00 AM70 °FPassing clouds.8 mph73%30.21 "HgN/A
9:00 AM66 °FPassing clouds.7 mph83%30.21 "HgN/A
8:00 AM63 °FPartly sunny.6 mph94%30.21 "Hg6 mi
7:00 AM63 °FMore clouds than sun.8 mph94%30.21 "Hg4 mi
6:00 AM63 °FPartly sunny.3 mph94%30.18 "Hg4 mi
5:00 AM63 °FFog.2 mph94%30.18 "Hg2 mi
4:00 AM63 °FFog.6 mph94%30.18 "Hg2 mi
3:00 AM63 °FFog.6 mph94%30.18 "Hg2 mi
2:00 AM63 °FFog.6 mph94%30.21 "Hg2 mi
1:00 AM63 °FFog.No wind94%30.21 "Hg2 mi
12:00 AM63 °FFog.7 mph94%30.24 "Hg2 mi
11:00 PM
Fri, May 22
63 °FFog.5 mph94%30.24 "Hg1 mi
10:00 PM61 °FFog.8 mph100%N/A1 mi
9:00 PMN/AFog.6 mphN/AN/A1 mi
8:00 PM61 °FFog.6 mph94%N/A1 mi
7:00 PM61 °FPassing clouds.5 mph94%30.21 "HgN/A
6:00 PM64 °FPassing clouds.6 mph88%30.21 "HgN/A
5:00 PM70 °FPassing clouds.6 mph78%30.21 "HgN/A
4:00 PM73 °FPartly sunny.6 mph65%30.21 "HgN/A
3:00 PM73 °FPartly sunny.7 mph57%30.18 "HgN/A
2:00 PM73 °FPartly sunny.8 mph57%30.21 "HgN/A
Weather by CustomWeather, © 2015

See weather overviewHow to use our weather pages